contact:dominique.lefevre@mio.osupytheas.fr, maurice.libes@osupytheas.fr, didier.mallarino@osupytheas.fr
Project:EMSO http://www.emso-fr.org/EMSO-France
Depth: 2436.0 m
Title:EMSO Ligure Ouest : Data MII capteur MICROCAT
DateTime_Computer,Latitude,Longitude,Temperature,Conductivity,Pressure,DateTime_Instrument
DateTime_Computer,Latitude,Longitude,degC,S m-1,dbar,DateTime_Instrument
2021-07-21T00:00:05Z,42.805,6.029,13.3048,4.60077,2470.46,2021-7-21T02:01:21Z
2021-07-21T00:03:08Z,42.805,6.029,13.3063,4.60073,2470.437,2021-7-21T02:04:24Z
2021-07-21T00:06:11Z,42.805,6.029,13.3047,4.60031,2470.497,2021-7-21T02:07:27Z
2021-07-21T00:09:14Z,42.805,6.029,13.3061,4.60054,2470.45,2021-7-21T02:10:30Z
2021-07-21T00:12:17Z,42.805,6.029,13.3052,4.60014,2470.437,2021-7-21T02:13:34Z
2021-07-21T00:15:20Z,42.805,6.029,13.3012,4.60010,2470.46,2021-7-21T02:16:37Z
2021-07-21T00:18:23Z,42.805,6.029,13.3019,4.60032,2470.46,2021-7-21T02:19:40Z
2021-07-21T00:21:27Z,42.805,6.029,13.3014,4.60061,2470.46,2021-7-21T02:22:43Z
2021-07-21T00:24:30Z,42.805,6.029,13.3011,4.60045,2470.46,2021-7-21T02:25:46Z
2021-07-21T00:27:33Z,42.805,6.029,13.3009,4.60031,2470.474,2021-7-21T02:28:49Z
2021-07-21T00:30:36Z,42.805,6.029,13.2998,4.60038,2470.437,2021-7-21T02:31:52Z
2021-07-21T00:33:39Z,42.805,6.029,13.2998,4.60020,2470.46,2021-7-21T02:34:55Z
2021-07-21T00:36:42Z,42.805,6.029,13.2996,4.60024,2470.483,2021-7-21T02:37:59Z
2021-07-21T00:39:45Z,42.805,6.029,13.2997,4.60054,2470.46,2021-7-21T02:41:02Z
2021-07-21T00:42:48Z,42.805,6.029,13.2996,4.60038,2470.497,2021-7-21T02:44:05Z
2021-07-21T00:45:52Z,42.805,6.029,13.3011,4.60014,2470.507,2021-7-21T02:47:08Z
2021-07-21T00:48:55Z,42.805,6.029,13.2993,4.60016,2470.483,2021-7-21T02:50:11Z
2021-07-21T00:51:58Z,42.805,6.029,13.2992,4.60015,2470.474,2021-7-21T02:53:14Z
2021-07-21T00:55:01Z,42.805,6.029,13.2993,4.60037,2470.497,2021-7-21T02:56:17Z
2021-07-21T00:58:04Z,42.805,6.029,13.2998,4.60019,2470.46,2021-7-21T02:59:20Z
2021-07-21T01:01:07Z,42.805,6.029,13.2996,4.60011,2470.474,2021-7-21T03:02:24Z
2021-07-21T01:04:10Z,42.805,6.029,13.2993,4.60017,2470.45,2021-7-21T03:05:27Z
2021-07-21T01:07:13Z,42.805,6.029,13.2994,4.60013,2470.47,2021-7-21T03:08:30Z
2021-07-21T01:10:17Z,42.805,6.029,13.2996,4.60009,2470.483,2021-7-21T03:11:33Z
2021-07-21T01:13:20Z,42.805,6.029,13.2996,4.60029,2470.483,2021-7-21T03:14:36Z
2021-07-21T01:16:23Z,42.805,6.029,13.2996,4.60046,2470.497,2021-7-21T03:17:39Z
2021-07-21T01:19:26Z,42.805,6.029,13.2994,4.60033,2470.52,2021-7-21T03:20:42Z
2021-07-21T01:22:29Z,42.805,6.029,13.2997,4.60034,2470.497,2021-7-21T03:23:45Z
2021-07-21T01:25:32Z,42.805,6.029,13.3017,4.60061,2470.483,2021-7-21T03:26:49Z
2021-07-21T01:28:35Z,42.805,6.029,13.3000,4.60028,2470.483,2021-7-21T03:29:52Z
2021-07-21T01:31:38Z,42.805,6.029,13.2998,4.60018,2470.497,2021-7-21T03:32:55Z
2021-07-21T01:34:42Z,42.805,6.029,13.2998,4.60005,2470.52,2021-7-21T03:35:58Z
2021-07-21T01:37:45Z,42.805,6.029,13.2996,4.60006,2470.497,2021-7-21T03:39:01Z
2021-07-21T01:40:48Z,42.805,6.029,13.2998,4.60007,2470.52,2021-7-21T03:42:04Z
2021-07-21T01:43:51Z,42.805,6.029,13.2994,4.60010,2470.483,2021-7-21T03:45:07Z
2021-07-21T01:46:54Z,42.805,6.029,13.2997,4.60023,2470.483,2021-7-21T03:48:10Z
2021-07-21T01:49:57Z,42.805,6.029,13.2990,4.60009,2470.507,2021-7-21T03:51:14Z
2021-07-21T01:53:00Z,42.805,6.029,13.2993,4.60009,2470.52,2021-7-21T03:54:17Z
2021-07-21T01:56:03Z,42.805,6.029,13.3000,4.60012,2470.46,2021-7-21T03:57:20Z
2021-07-21T01:59:07Z,42.805,6.029,13.3010,4.60014,2470.507,2021-7-21T04:00:23Z
2021-07-21T02:02:10Z,42.805,6.029,13.3032,4.60035,2470.497,2021-7-21T04:03:26Z
2021-07-21T02:05:13Z,42.805,6.029,13.3040,4.60034,2470.507,2021-7-21T04:06:29Z
2021-07-21T02:08:16Z,42.805,6.029,13.3037,4.60058,2470.474,2021-7-21T04:09:32Z
2021-07-21T02:11:19Z,42.805,6.029,13.3014,4.60052,2470.483,2021-7-21T04:12:35Z
2021-07-21T02:14:22Z,42.805,6.029,13.3005,4.60064,2470.52,2021-7-21T04:15:39Z
2021-07-21T02:17:25Z,42.805,6.029,13.3030,4.60032,2470.493,2021-7-21T04:18:42Z
2021-07-21T02:20:28Z,42.805,6.029,13.2995,4.60029,2470.544,2021-7-21T04:21:45Z
2021-07-21T02:23:31Z,42.805,6.029,13.2992,4.60019,2470.544,2021-7-21T04:24:48Z
2021-07-21T02:26:35Z,42.805,6.029,13.2993,4.60017,2470.52,2021-7-21T04:27:51Z
2021-07-21T02:29:38Z,42.805,6.029,13.2996,4.60011,2470.497,2021-7-21T04:30:54Z
2021-07-21T02:32:41Z,42.805,6.029,13.2992,4.60009,2470.507,2021-7-21T04:33:57Z
2021-07-21T02:35:44Z,42.805,6.029,13.2995,4.60009,2470.52,2021-7-21T04:37:00Z
2021-07-21T02:38:47Z,42.805,6.029,13.2994,4.60009,2470.53,2021-7-21T04:40:04Z
2021-07-21T02:41:50Z,42.805,6.029,13.2998,4.60010,2470.544,2021-7-21T04:43:07Z
2021-07-21T02:44:53Z,42.805,6.029,13.2993,4.60013,2470.52,2021-7-21T04:46:10Z
2021-07-21T02:47:56Z,42.805,6.029,13.2993,4.60011,2470.53,2021-7-21T04:49:13Z
2021-07-21T02:51:00Z,42.805,6.029,13.2996,4.60007,2470.507,2021-7-21T04:52:16Z
2021-07-21T02:54:03Z,42.805,6.029,13.2992,4.60004,2470.544,2021-7-21T04:55:19Z
2021-07-21T02:57:06Z,42.805,6.029,13.2993,4.60009,2470.567,2021-7-21T04:58:22Z
2021-07-21T03:00:09Z,42.805,6.029,13.2994,4.60009,2470.507,2021-7-21T05:01:25Z
2021-07-21T03:03:12Z,42.805,6.029,13.2997,4.60004,2470.553,2021-7-21T05:04:29Z
2021-07-21T03:06:15Z,42.805,6.029,13.2998,4.60010,2470.53,2021-7-21T05:07:32Z
2021-07-21T03:09:18Z,42.805,6.029,13.2991,4.60009,2470.53,2021-7-21T05:10:35Z
2021-07-21T03:12:21Z,42.805,6.029,13.2993,4.60006,2470.507,2021-7-21T05:13:38Z
2021-07-21T03:15:25Z,42.805,6.029,13.2994,4.60014,2470.553,2021-7-21T05:16:41Z
2021-07-21T03:18:28Z,42.805,6.029,13.3003,4.60014,2470.553,2021-7-21T05:19:44Z
2021-07-21T03:21:31Z,42.805,6.029,13.3001,4.60014,2470.483,2021-7-21T05:22:47Z
2021-07-21T03:24:34Z,42.805,6.029,13.3009,4.60026,2470.52,2021-7-21T05:25:50Z
2021-07-21T03:27:37Z,42.805,6.029,13.2994,4.60011,2470.52,2021-7-21T05:28:54Z
2021-07-21T03:30:40Z,42.805,6.029,13.2996,4.60016,2470.567,2021-7-21T05:31:57Z
2021-07-21T03:33:43Z,42.805,6.029,13.2998,4.60020,2470.567,2021-7-21T05:35:00Z
2021-07-21T03:36:46Z,42.805,6.029,13.2991,4.60019,2470.544,2021-7-21T05:38:03Z
2021-07-21T03:39:50Z,42.805,6.029,13.2994,4.60014,2470.544,2021-7-21T05:41:06Z
2021-07-21T03:42:53Z,42.805,6.029,13.3011,4.60025,2470.544,2021-7-21T05:44:09Z
2021-07-21T03:45:56Z,42.805,6.029,13.3030,4.60029,2470.507,2021-7-21T05:47:12Z
2021-07-21T03:48:59Z,42.805,6.029,13.3019,4.60043,2470.544,2021-7-21T05:50:15Z
2021-07-21T03:52:02Z,42.805,6.029,13.3012,4.60020,2470.567,2021-7-21T05:53:18Z
2021-07-21T03:55:05Z,42.805,6.029,13.2991,4.60025,2470.53,2021-7-21T05:56:22Z
2021-07-21T03:58:08Z,42.805,6.029,13.2992,4.60014,2470.53,2021-7-21T05:59:25Z
2021-07-21T04:01:11Z,42.805,6.029,13.2993,4.60009,2470.544,2021-7-21T06:02:28Z
2021-07-21T04:04:15Z,42.805,6.029,13.2996,4.60009,2470.507,2021-7-21T06:05:31Z
2021-07-21T04:07:18Z,42.805,6.029,13.2992,4.60010,2470.553,2021-7-21T06:08:34Z
2021-07-21T04:10:21Z,42.805,6.029,13.2989,4.60016,2470.53,2021-7-21T06:11:37Z
2021-07-21T04:13:24Z,42.805,6.029,13.2993,4.60016,2470.553,2021-7-21T06:14:40Z
2021-07-21T04:16:27Z,42.805,6.029,13.2991,4.60012,2470.53,2021-7-21T06:17:43Z
2021-07-21T04:19:30Z,42.805,6.029,13.2992,4.60009,2470.577,2021-7-21T06:20:47Z
2021-07-21T04:22:33Z,42.805,6.029,13.3004,4.60016,2470.591,2021-7-21T06:23:50Z
2021-07-21T04:25:36Z,42.805,6.029,13.2995,4.60010,2470.553,2021-7-21T06:26:53Z
2021-07-21T04:28:40Z,42.805,6.029,13.2996,4.60030,2470.544,2021-7-21T06:29:56Z
2021-07-21T04:31:43Z,42.805,6.029,13.3047,4.60019,2470.553,2021-7-21T06:32:59Z
2021-07-21T04:34:46Z,42.805,6.029,13.3027,4.60021,2470.591,2021-7-21T06:36:02Z
2021-07-21T04:37:49Z,42.805,6.029,13.2993,4.60013,2470.507,2021-7-21T06:39:05Z
2021-07-21T04:40:52Z,42.805,6.029,13.2993,4.60014,2470.567,2021-7-21T06:42:08Z
2021-07-21T04:43:55Z,42.805,6.029,13.2996,4.60012,2470.577,2021-7-21T06:45:12Z
2021-07-21T04:46:58Z,42.805,6.029,13.2996,4.60023,2470.553,2021-7-21T06:48:15Z
2021-07-21T04:50:01Z,42.805,6.029,13.3006,4.60018,2470.577,2021-7-21T06:51:18Z
2021-07-21T04:53:05Z,42.805,6.029,13.2993,4.60015,2470.553,2021-7-21T06:54:21Z
2021-07-21T04:56:08Z,42.805,6.029,13.2991,4.60016,2470.567,2021-7-21T06:57:24Z
2021-07-21T04:59:11Z,42.805,6.029,13.2989,4.60010,2470.53,2021-7-21T07:00:27Z
2021-07-21T05:02:14Z,42.805,6.029,13.2989,4.60015,2470.567,2021-7-21T07:03:30Z
2021-07-21T05:05:17Z,42.805,6.029,13.2996,4.60009,2470.567,2021-7-21T07:06:33Z
2021-07-21T05:08:20Z,42.805,6.029,13.2994,4.60011,2470.567,2021-7-21T07:09:37Z
2021-07-21T05:11:23Z,42.805,6.029,13.3004,4.60034,2470.577,2021-7-21T07:12:40Z
2021-07-21T05:14:26Z,42.805,6.029,13.3020,4.60033,2470.544,2021-7-21T07:15:43Z
2021-07-21T05:17:30Z,42.805,6.029,13.3022,4.60034,2470.544,2021-7-21T07:18:46Z
2021-07-21T05:20:33Z,42.805,6.029,13.3043,4.60036,2470.567,2021-7-21T07:21:49Z
2021-07-21T05:23:36Z,42.805,6.029,13.3002,4.60028,2470.553,2021-7-21T07:24:52Z
2021-07-21T05:26:39Z,42.805,6.029,13.3000,4.60031,2470.544,2021-7-21T07:27:55Z
2021-07-21T05:29:42Z,42.805,6.029,13.3029,4.60055,2470.567,2021-7-21T07:30:58Z
2021-07-21T05:32:45Z,42.805,6.029,13.3029,4.60083,2470.567,2021-7-21T07:34:02Z
2021-07-21T05:35:48Z,42.805,6.029,13.3039,4.60014,2470.567,2021-7-21T07:37:05Z
2021-07-21T05:38:51Z,42.805,6.029,13.2999,4.60042,2470.53,2021-7-21T07:40:08Z
2021-07-21T05:41:54Z,42.805,6.029,13.3031,4.60046,2470.53,2021-7-21T07:43:11Z
2021-07-21T05:44:58Z,42.805,6.029,13.3032,4.60034,2470.553,2021-7-21T07:46:14Z
2021-07-21T05:48:01Z,42.805,6.029,13.3037,4.60060,2470.544,2021-7-21T07:49:17Z
2021-07-21T05:51:04Z,42.805,6.029,13.3024,4.60045,2470.53,2021-7-21T07:52:20Z
2021-07-21T05:54:07Z,42.805,6.029,13.3027,4.60027,2470.567,2021-7-21T07:55:23Z
2021-07-21T05:57:10Z,42.805,6.029,13.3035,4.60051,2470.553,2021-7-21T07:58:27Z
2021-07-21T06:00:13Z,42.805,6.029,13.3043,4.60062,2470.53,2021-7-21T08:01:30Z
2021-07-21T06:03:16Z,42.805,6.029,13.3040,4.60040,2470.553,2021-7-21T08:04:33Z
2021-07-21T06:06:19Z,42.805,6.029,13.3008,4.60010,2470.553,2021-7-21T08:07:36Z
2021-07-21T06:09:23Z,42.805,6.029,13.3021,4.60020,2470.544,2021-7-21T08:10:39Z
2021-07-21T06:12:26Z,42.805,6.029,13.3026,4.60043,2470.544,2021-7-21T08:13:42Z
2021-07-21T06:15:29Z,42.805,6.029,13.3034,4.60037,2470.553,2021-7-21T08:16:45Z
2021-07-21T06:18:32Z,42.805,6.029,13.3034,4.60051,2470.516,2021-7-21T08:19:48Z
2021-07-21T06:21:35Z,42.805,6.029,13.3034,4.60043,2470.53,2021-7-21T08:22:52Z
2021-07-21T06:24:38Z,42.805,6.029,13.3026,4.60050,2470.53,2021-7-21T08:25:55Z
2021-07-21T06:27:41Z,42.805,6.029,13.3039,4.60074,2470.567,2021-7-21T08:28:58Z
2021-07-21T06:30:44Z,42.805,6.029,13.3036,4.60085,2470.544,2021-7-21T08:32:01Z
2021-07-21T06:33:48Z,42.805,6.029,13.3047,4.60049,2470.558,2021-7-21T08:35:04Z
2021-07-21T06:36:51Z,42.805,6.029,13.3009,4.60067,2470.544,2021-7-21T08:38:07Z
2021-07-21T06:39:54Z,42.805,6.029,13.3011,4.60051,2470.53,2021-7-21T08:41:10Z
2021-07-21T06:42:57Z,42.805,6.029,13.3018,4.60049,2470.53,2021-7-21T08:44:13Z
2021-07-21T06:46:00Z,42.805,6.029,13.3015,4.60069,2470.544,2021-7-21T08:47:17Z
2021-07-21T06:49:03Z,42.805,6.029,13.3014,4.60119,2470.53,2021-7-21T08:50:20Z
2021-07-21T06:52:06Z,42.805,6.029,13.3011,4.60089,2470.507,2021-7-21T08:53:23Z
2021-07-21T06:55:09Z,42.805,6.029,13.3010,4.60078,2470.53,2021-7-21T08:56:26Z
2021-07-21T06:58:13Z,42.805,6.029,13.3017,4.60077,2470.52,2021-7-21T08:59:29Z
2021-07-21T07:01:16Z,42.805,6.029,13.3026,4.60089,2470.53,2021-7-21T09:02:32Z
2021-07-21T07:04:19Z,42.805,6.029,13.3029,4.60092,2470.52,2021-7-21T09:05:35Z
2021-07-21T07:07:22Z,42.805,6.029,13.3029,4.60088,2470.544,2021-7-21T09:08:38Z
2021-07-21T07:10:25Z,42.805,6.029,13.3021,4.60092,2470.497,2021-7-21T09:11:41Z
2021-07-21T07:13:28Z,42.805,6.029,13.3015,4.60087,2470.507,2021-7-21T09:14:45Z
2021-07-21T07:16:31Z,42.805,6.029,13.3036,4.60090,2470.507,2021-7-21T09:17:48Z
2021-07-21T07:19:34Z,42.805,6.029,13.3021,4.60052,2470.52,2021-7-21T09:20:51Z
2021-07-21T07:22:38Z,42.805,6.029,13.3011,4.60104,2470.52,2021-7-21T09:23:54Z
2021-07-21T07:25:41Z,42.805,6.029,13.3016,4.60070,2470.52,2021-7-21T09:26:57Z
2021-07-21T07:28:44Z,42.805,6.029,13.3010,4.60084,2470.507,2021-7-21T09:30:00Z
2021-07-21T07:31:47Z,42.805,6.029,13.3011,4.60074,2470.497,2021-7-21T09:33:03Z
2021-07-21T07:34:50Z,42.805,6.029,13.3012,4.60077,2470.52,2021-7-21T09:36:06Z
2021-07-21T07:37:53Z,42.805,6.029,13.3022,4.60089,2470.474,2021-7-21T09:39:10Z
2021-07-21T07:40:56Z,42.805,6.029,13.3014,4.60068,2470.52,2021-7-21T09:42:13Z
2021-07-21T07:43:59Z,42.805,6.029,13.3024,4.60097,2470.507,2021-7-21T09:45:16Z
2021-07-21T07:47:03Z,42.805,6.029,13.3026,4.60057,2470.497,2021-7-21T09:48:19Z
2021-07-21T07:50:06Z,42.805,6.029,13.3031,4.60038,2470.46,2021-7-21T09:51:22Z
2021-07-21T07:53:09Z,42.805,6.029,13.3005,4.60031,2470.483,2021-7-21T09:54:25Z
2021-07-21T07:56:12Z,42.805,6.029,13.3027,4.60038,2470.474,2021-7-21T09:57:28Z
2021-07-21T07:59:15Z,42.805,6.029,13.3012,4.60074,2470.497,2021-7-21T10:00:31Z
2021-07-21T08:02:18Z,42.805,6.029,13.3023,4.60058,2470.507,2021-7-21T10:03:35Z
2021-07-21T08:05:21Z,42.805,6.029,13.3016,4.60029,2470.497,2021-7-21T10:06:38Z
2021-07-21T08:08:24Z,42.805,6.029,13.3021,4.60059,2470.46,2021-7-21T10:09:41Z
2021-07-21T08:11:28Z,42.805,6.029,13.3041,4.60070,2470.46,2021-7-21T10:12:44Z
2021-07-21T08:14:31Z,42.805,6.029,13.3037,4.60040,2470.474,2021-7-21T10:15:47Z
2021-07-21T08:17:34Z,42.805,6.029,13.3026,4.60079,2470.483,2021-7-21T10:18:50Z
2021-07-21T08:20:37Z,42.805,6.029,13.3043,4.60060,2470.46,2021-7-21T10:21:53Z
2021-07-21T08:23:40Z,42.805,6.029,13.3038,4.60054,2470.437,2021-7-21T10:24:56Z
2021-07-21T08:26:43Z,42.805,6.029,13.3058,4.60034,2470.474,2021-7-21T10:28:00Z
2021-07-21T08:29:46Z,42.805,6.029,13.3025,4.60047,2470.45,2021-7-21T10:31:03Z
2021-07-21T08:32:49Z,42.805,6.029,13.3031,4.60023,2470.46,2021-7-21T10:34:06Z
2021-07-21T08:35:53Z,42.805,6.029,13.3019,4.60060,2470.497,2021-7-21T10:37:09Z
2021-07-21T08:38:56Z,42.805,6.029,13.3040,4.60057,2470.413,2021-7-21T10:40:12Z
2021-07-21T08:41:59Z,42.805,6.029,13.3051,4.60040,2470.474,2021-7-21T10:43:15Z
2021-07-21T08:45:02Z,42.805,6.029,13.3012,4.60062,2470.46,2021-7-21T10:46:18Z
2021-07-21T08:48:05Z,42.805,6.029,13.3019,4.60074,2470.45,2021-7-21T10:49:22Z
2021-07-21T08:51:08Z,42.805,6.029,13.3024,4.60043,2470.45,2021-7-21T10:52:25Z
2021-07-21T08:54:11Z,42.805,6.029,13.3023,4.60046,2470.45,2021-7-21T10:55:28Z
2021-07-21T08:57:14Z,42.805,6.029,13.3007,4.60064,2470.45,2021-7-21T10:58:31Z
2021-07-21T09:00:18Z,42.805,6.029,13.3022,4.60051,2470.474,2021-7-21T11:01:34Z
2021-07-21T09:03:21Z,42.805,6.029,13.3040,4.60059,2470.474,2021-7-21T11:04:37Z
2021-07-21T09:06:24Z,42.805,6.029,13.3022,4.60117,2470.45,2021-7-21T11:07:40Z
2021-07-21T09:09:27Z,42.805,6.029,13.3012,4.60089,2470.437,2021-7-21T11:10:43Z
2021-07-21T09:12:30Z,42.805,6.029,13.3043,4.60077,2470.437,2021-7-21T11:13:47Z
2021-07-21T09:15:33Z,42.805,6.029,13.3062,4.60064,2470.427,2021-7-21T11:16:50Z
2021-07-21T09:18:36Z,42.805,6.029,13.3041,4.60020,2470.427,2021-7-21T11:19:53Z
2021-07-21T09:21:39Z,42.805,6.029,13.3050,4.60020,2470.39,2021-7-21T11:22:56Z
2021-07-21T09:24:43Z,42.805,6.029,13.3060,4.60037,2470.45,2021-7-21T11:25:59Z
2021-07-21T09:27:46Z,42.805,6.029,13.3092,4.60027,2470.427,2021-7-21T11:29:02Z
2021-07-21T09:30:49Z,42.805,6.029,13.3047,4.60049,2470.413,2021-7-21T11:32:05Z
2021-07-21T09:33:52Z,42.805,6.029,13.3058,4.60029,2470.427,2021-7-21T11:35:08Z
2021-07-21T09:36:55Z,42.805,6.029,13.3048,4.60023,2470.39,2021-7-21T11:38:12Z
2021-07-21T09:39:58Z,42.805,6.029,13.3057,4.60042,2470.45,2021-7-21T11:41:15Z
2021-07-21T09:43:01Z,42.805,6.029,13.3053,4.60062,2470.413,2021-7-21T11:44:18Z
2021-07-21T09:46:05Z,42.805,6.029,13.3057,4.60056,2470.437,2021-7-21T11:47:21Z
2021-07-21T09:49:08Z,42.805,6.029,13.3061,4.60055,2470.45,2021-7-21T11:50:24Z
2021-07-21T09:52:11Z,42.805,6.029,13.3062,4.60062,2470.404,2021-7-21T11:53:27Z
2021-07-21T09:55:14Z,42.805,6.029,13.3061,4.60043,2470.427,2021-7-21T11:56:30Z
2021-07-21T09:58:17Z,42.805,6.029,13.3061,4.60056,2470.404,2021-7-21T11:59:33Z
2021-07-21T10:01:20Z,42.805,6.029,13.3069,4.60062,2470.404,2021-7-21T12:02:37Z
2021-07-21T10:04:23Z,42.805,6.029,13.3063,4.60038,2470.366,2021-7-21T12:05:40Z
2021-07-21T10:07:26Z,42.805,6.029,13.3070,4.60064,2470.38,2021-7-21T12:08:43Z
2021-07-21T10:10:30Z,42.805,6.029,13.3068,4.60052,2470.39,2021-7-21T12:11:46Z
2021-07-21T10:13:33Z,42.805,6.029,13.3063,4.60049,2470.404,2021-7-21T12:14:49Z
2021-07-21T10:16:36Z,42.805,6.029,13.3069,4.60060,2470.38,2021-7-21T12:17:52Z
2021-07-21T10:19:39Z,42.805,6.029,13.3065,4.60072,2470.427,2021-7-21T12:20:55Z
2021-07-21T10:22:42Z,42.805,6.029,13.3073,4.60081,2470.404,2021-7-21T12:23:58Z
2021-07-21T10:25:45Z,42.805,6.029,13.3075,4.60087,2470.413,2021-7-21T12:27:02Z
2021-07-21T10:28:48Z,42.805,6.029,13.3060,4.60085,2470.39,2021-7-21T12:30:05Z
2021-07-21T10:31:51Z,42.805,6.029,13.2997,4.60095,2470.38,2021-7-21T12:33:08Z
2021-07-21T10:34:55Z,42.805,6.029,13.2997,4.60128,2470.38,2021-7-21T12:36:11Z
2021-07-21T10:37:58Z,42.805,6.029,13.2989,4.60147,2470.404,2021-7-21T12:39:14Z
2021-07-21T10:41:01Z,42.805,6.029,13.2996,4.60063,2470.38,2021-7-21T12:42:17Z
2021-07-21T10:44:04Z,42.805,6.029,13.2993,4.60040,2470.366,2021-7-21T12:45:20Z
2021-07-21T10:47:07Z,42.805,6.029,13.2990,4.60042,2470.366,2021-7-21T12:48:23Z
2021-07-21T10:50:10Z,42.805,6.029,13.2988,4.60061,2470.404,2021-7-21T12:51:27Z
2021-07-21T10:53:13Z,42.805,6.029,13.2991,4.60082,2470.404,2021-7-21T12:54:30Z
2021-07-21T10:56:16Z,42.805,6.029,13.2993,4.60057,2470.39,2021-7-21T12:57:33Z
2021-07-21T10:59:20Z,42.805,6.029,13.2996,4.60036,2470.366,2021-7-21T13:00:36Z
2021-07-21T11:02:23Z,42.805,6.029,13.2993,4.60021,2470.366,2021-7-21T13:03:39Z
2021-07-21T11:05:26Z,42.805,6.029,13.2994,4.60029,2470.366,2021-7-21T13:06:42Z
2021-07-21T11:08:29Z,42.805,6.029,13.2991,4.60022,2470.353,2021-7-21T13:09:45Z
2021-07-21T11:11:32Z,42.805,6.029,13.2990,4.60022,2470.404,2021-7-21T13:12:49Z
2021-07-21T11:14:35Z,42.805,6.029,13.2990,4.60029,2470.38,2021-7-21T13:15:52Z
2021-07-21T11:17:38Z,42.805,6.029,13.2992,4.60028,2470.366,2021-7-21T13:18:55Z
2021-07-21T11:20:41Z,42.805,6.029,13.2991,4.60021,2470.404,2021-7-21T13:21:58Z
2021-07-21T11:23:45Z,42.805,6.029,13.2991,4.60022,2470.404,2021-7-21T13:25:01Z
2021-07-21T11:26:48Z,42.805,6.029,13.2995,4.60012,2470.404,2021-7-21T13:28:04Z
2021-07-21T11:29:51Z,42.805,6.029,13.2990,4.60017,2470.366,2021-7-21T13:31:07Z
2021-07-21T11:32:54Z,42.805,6.029,13.2991,4.60024,2470.404,2021-7-21T13:34:10Z
2021-07-21T11:35:57Z,42.805,6.029,13.2994,4.60019,2470.366,2021-7-21T13:37:14Z
2021-07-21T11:39:00Z,42.805,6.029,13.2991,4.60020,2470.39,2021-7-21T13:40:17Z
2021-07-21T11:42:03Z,42.805,6.029,13.2993,4.60019,2470.39,2021-7-21T13:43:20Z
2021-07-21T11:45:06Z,42.805,6.029,13.2993,4.60019,2470.39,2021-7-21T13:46:23Z
2021-07-21T11:48:10Z,42.805,6.029,13.2994,4.60011,2470.39,2021-7-21T13:49:26Z
2021-07-21T11:51:13Z,42.805,6.029,13.2986,4.60014,2470.39,2021-7-21T13:52:29Z
2021-07-21T11:54:16Z,42.805,6.029,13.2992,4.60006,2470.353,2021-7-21T13:55:32Z
2021-07-21T11:57:19Z,42.805,6.029,13.2990,4.60014,2470.39,2021-7-21T13:58:35Z
2021-07-21T12:00:22Z,42.805,6.029,13.2989,4.60008,2470.366,2021-7-21T14:01:39Z
2021-07-21T12:03:25Z,42.805,6.029,13.2991,4.60009,2470.366,2021-7-21T14:04:42Z
2021-07-21T12:06:28Z,42.805,6.029,13.2990,4.60007,2470.404,2021-7-21T14:07:45Z
2021-07-21T12:09:32Z,42.805,6.029,13.2989,4.60006,2470.366,2021-7-21T14:10:48Z
2021-07-21T12:12:35Z,42.805,6.029,13.2990,4.60010,2470.404,2021-7-21T14:13:51Z
2021-07-21T12:15:38Z,42.805,6.029,13.2991,4.60011,2470.343,2021-7-21T14:16:54Z
2021-07-21T12:18:41Z,42.805,6.029,13.2992,4.60013,2470.38,2021-7-21T14:19:57Z
2021-07-21T12:21:44Z,42.805,6.029,13.2995,4.60009,2470.33,2021-7-21T14:23:00Z
2021-07-21T12:24:47Z,42.805,6.029,13.2991,4.60019,2470.404,2021-7-21T14:26:04Z
2021-07-21T12:27:50Z,42.805,6.029,13.2988,4.60019,2470.38,2021-7-21T14:29:07Z
2021-07-21T12:30:53Z,42.805,6.029,13.2992,4.60009,2470.39,2021-7-21T14:32:10Z
2021-07-21T12:33:57Z,42.805,6.029,13.2993,4.60004,2470.39,2021-7-21T14:35:13Z
2021-07-21T12:37:00Z,42.805,6.029,13.2994,4.60003,2470.39,2021-7-21T14:38:16Z
2021-07-21T12:40:03Z,42.805,6.029,13.2991,4.60016,2470.39,2021-7-21T14:41:19Z
2021-07-21T12:43:06Z,42.805,6.029,13.2992,4.60010,2470.366,2021-7-21T14:44:22Z
2021-07-21T12:46:09Z,42.805,6.029,13.2994,4.60007,2470.413,2021-7-21T14:47:26Z
2021-07-21T12:49:12Z,42.805,6.029,13.2993,4.60011,2470.404,2021-7-21T14:50:29Z
2021-07-21T12:52:15Z,42.805,6.029,13.2993,4.60002,2470.413,2021-7-21T14:53:32Z
2021-07-21T12:55:18Z,42.805,6.029,13.2991,4.60002,2470.427,2021-7-21T14:56:35Z
2021-07-21T12:58:22Z,42.805,6.029,13.2993,4.60003,2470.413,2021-7-21T14:59:38Z
2021-07-21T13:01:25Z,42.805,6.029,13.2994,4.60004,2470.45,2021-7-21T15:02:41Z
2021-07-21T13:04:28Z,42.805,6.029,13.2996,4.60004,2470.437,2021-7-21T15:05:44Z
2021-07-21T13:07:31Z,42.805,6.029,13.2995,4.60003,2470.413,2021-7-21T15:08:47Z
2021-07-21T13:10:34Z,42.805,6.029,13.2992,4.60001,2470.413,2021-7-21T15:11:51Z
2021-07-21T13:13:37Z,42.805,6.029,13.2996,4.60006,2470.39,2021-7-21T15:14:54Z
2021-07-21T13:16:40Z,42.805,6.029,13.2997,4.60003,2470.413,2021-7-21T15:17:57Z
2021-07-21T13:19:43Z,42.805,6.029,13.3002,4.60003,2470.45,2021-7-21T15:21:00Z
2021-07-21T13:22:47Z,42.805,6.029,13.3002,4.60003,2470.437,2021-7-21T15:24:03Z
2021-07-21T13:25:50Z,42.805,6.029,13.2993,4.60004,2470.45,2021-7-21T15:27:06Z
2021-07-21T13:28:53Z,42.805,6.029,13.2996,4.60005,2470.45,2021-7-21T15:30:09Z
2021-07-21T13:31:56Z,42.805,6.029,13.3001,4.60005,2470.39,2021-7-21T15:33:12Z
2021-07-21T13:34:59Z,42.805,6.029,13.3000,4.60004,2470.399,2021-7-21T15:36:16Z
2021-07-21T13:38:02Z,42.805,6.029,13.2997,4.60010,2470.413,2021-7-21T15:39:19Z
2021-07-21T13:41:05Z,42.805,6.029,13.3001,4.60009,2470.413,2021-7-21T15:42:22Z
2021-07-21T13:44:08Z,42.805,6.029,13.2998,4.60002,2470.474,2021-7-21T15:45:25Z
2021-07-21T13:47:12Z,42.805,6.029,13.2996,4.60002,2470.413,2021-7-21T15:48:28Z
2021-07-21T13:50:15Z,42.805,6.029,13.2996,4.60003,2470.483,2021-7-21T15:51:31Z
2021-07-21T13:53:18Z,42.805,6.029,13.2998,4.60009,2470.437,2021-7-21T15:54:34Z
2021-07-21T13:56:21Z,42.805,6.029,13.2998,4.60010,2470.45,2021-7-21T15:57:37Z
2021-07-21T13:59:24Z,42.805,6.029,13.2996,4.60009,2470.45,2021-7-21T16:00:41Z
2021-07-21T14:02:27Z,42.805,6.029,13.2992,4.60006,2470.46,2021-7-21T16:03:44Z
2021-07-21T14:05:30Z,42.805,6.029,13.2991,4.60019,2470.437,2021-7-21T16:06:47Z
2021-07-21T14:08:33Z,42.805,6.029,13.2996,4.60004,2470.474,2021-7-21T16:09:50Z
2021-07-21T14:11:37Z,42.805,6.029,13.2994,4.60009,2470.497,2021-7-21T16:12:53Z
2021-07-21T14:14:40Z,42.805,6.029,13.2993,4.60008,2470.483,2021-7-21T16:15:56Z
2021-07-21T14:17:43Z,42.805,6.029,13.2991,4.60005,2470.46,2021-7-21T16:18:59Z
2021-07-21T14:20:46Z,42.805,6.029,13.2993,4.60003,2470.497,2021-7-21T16:22:02Z
2021-07-21T14:23:49Z,42.805,6.029,13.2991,4.60003,2470.46,2021-7-21T16:25:06Z
2021-07-21T14:26:52Z,42.805,6.029,13.2994,4.60003,2470.46,2021-7-21T16:28:09Z
2021-07-21T14:29:55Z,42.805,6.029,13.2991,4.60003,2470.507,2021-7-21T16:31:12Z
2021-07-21T14:32:58Z,42.805,6.029,13.2992,4.60002,2470.483,2021-7-21T16:34:15Z
2021-07-21T14:36:02Z,42.805,6.029,13.2996,4.60011,2470.483,2021-7-21T16:37:18Z
2021-07-21T14:39:05Z,42.805,6.029,13.2995,4.60003,2470.52,2021-7-21T16:40:21Z
2021-07-21T14:42:08Z,42.805,6.029,13.2998,4.60006,2470.52,2021-7-21T16:43:24Z
2021-07-21T14:45:11Z,42.805,6.029,13.2996,4.60007,2470.497,2021-7-21T16:46:27Z
2021-07-21T14:48:14Z,42.805,6.029,13.2997,4.60019,2470.483,2021-7-21T16:49:31Z
2021-07-21T14:51:17Z,42.805,6.029,13.2996,4.60007,2470.507,2021-7-21T16:52:34Z
2021-07-21T14:54:20Z,42.805,6.029,13.2998,4.60019,2470.507,2021-7-21T16:55:37Z
2021-07-21T14:57:24Z,42.805,6.029,13.3000,4.60009,2470.507,2021-7-21T16:58:40Z
2021-07-21T15:00:27Z,42.805,6.029,13.2997,4.60011,2470.544,2021-7-21T17:01:43Z
2021-07-21T15:03:30Z,42.805,6.029,13.2997,4.60010,2470.507,2021-7-21T17:04:46Z
2021-07-21T15:06:33Z,42.805,6.029,13.2995,4.60006,2470.52,2021-7-21T17:07:49Z
2021-07-21T15:09:36Z,42.805,6.029,13.2997,4.60003,2470.507,2021-7-21T17:10:52Z
2021-07-21T15:12:39Z,42.805,6.029,13.2998,4.60006,2470.52,2021-7-21T17:13:56Z